Location: Unspecified
(0.0000°N, 0.0000°E)
Time: 07:28:48
(UTC+00:00)

USA 224 - Visible Passes

Search period start: 09 June 2023 00:00
Search period end: 19 June 2023 00:00
Orbit: 248 x 775 km, 98.0° (Epoch: 09 August)

Date Brightness Start Highest point End Pass type
(mag) Time Alt. Az. Time Alt. Az. Time Alt. Az.
09 Jun ? 04:02:51 21° SE 04:05:32 48° ENE 04:09:49 10° N visible
10 Jun ? 03:25:53 10° ESE 03:28:17 15° ENE 03:30:42 10° NE visible
10 Jun ? 04:58:19 18° SW 05:00:25 26° WSW 05:04:08 10° NW visible
11 Jun ? 04:20:16 23° SSE 04:23:02 87° ENE 04:27:29 10° N visible
12 Jun ? 03:42:09 11° SE 03:45:37 24° ENE 03:49:12 10° NNE visible
12 Jun ? 05:15:37 12° SW 05:17:47 16° WSW 05:20:26 10° WNW visible
13 Jun ? 04:37:26 20° S 04:40:16 54° WSW 04:44:35 10° NNW visible
14 Jun ? 03:59:12 14° SE 04:02:41 41° ENE 04:06:50 10° N visible
15 Jun ? 03:23:20 10° E 03:25:02 12° ENE 03:26:44 10° NE visible
15 Jun ? 04:54:22 16° SSW 04:57:11 31° WSW 05:01:06 10° NW visible
16 Jun ? 04:16:01 16° SSE 04:19:29 71° ENE 04:23:49 10° N visible
17 Jun ? 03:38:27 10° SE 03:41:41 20° ENE 03:44:50 10° NNE visible
17 Jun ? 05:11:04 12° SW 05:13:49 19° WSW 05:16:55 10° WNW visible
18 Jun ? 04:32:36 17° S 04:36:00 68° WSW 04:40:15 10° NNW visible
